Weather History for Bogalusa, LA

Change the Weather History Date:

Saturday, February 2, 2013

  Actual Average Record
Temperature  
Mean Temperature 50 °F -  
Max Temperature 67 °F 63 °F 72 °F (2014)
Min Temperature 32 °F 42 °F 32 °F (2013)
Degree Days  
Heating Degree Days 16    
Moisture  
Dew Point 41 °F    
Average Humidity 70    
Maximum Humidity 100    
Minimum Humidity 43    
Precipitation  
Precipitation 0.00 in - - ()
Sea Level Pressure  
Sea Level Pressure 30.28 in    
Wind  
Wind Speed 3 mph (SSW)    
Max Wind Speed 14 mph    
Max Gust Speed 20 mph    
Visibility 10 miles    
Events Rain    
Averages and records for this station are not official NWS values.
T = Trace of Precipitation, MM = Missing Value Source: NWS Daily Summary

Daily Weather History Graph

Daily Weather History Graph

Search for Another Location

Airport:

Trip Planner

Search our weather history database for the weather conditions in past years. The results will help you decide how hot, cold, wet, or windy it might be!

Date:

Astronomy

Feb. 02, 2013 Rise Set
Actual Time 6:50 AM CST 5:36 PM CST
Civil Twilight 6:25 AM CST 6:01 PM CST
Nautical Twilight 5:56 AM CST 6:30 PM CST
Astronomical Twilight 5:27 AM CST 6:59 PM CST
Moon No Moon Rise 10:31 AM CST (2/2)
Length of Visible Light 11h 36m
Length of Day
10h 46m
Waning Gibbous, 59% of the Moon is Illuminated
Feb 2
Waning Gibbous
Feb 3
Last Quarter
Feb 10
New
Feb 17
First Quarter
Feb 25
Full

Hourly Weather History & Observations

Time (CST) Temp. Windchill Dew Point Humidity Pressure Visibility Wind Dir Wind Speed Gust Speed Precip Events Conditions
12:15 AM - - - N/A% 30.36 in 10.0 mi Calm Calm - N/A   Unknown
12:35 AM - - - N/A% 30.36 in 10.0 mi Calm Calm - N/A   Unknown
12:55 AM 34.3 °F 31.4 °F 34.3 °F 100% 30.36 in 10.0 mi North 3.5 mph - N/A   Unknown
1:15 AM 35.1 °F - 35.1 °F 100% 30.36 in 10.0 mi Calm Calm - N/A   Unknown
1:35 AM 34.9 °F - 34.9 °F 100% 30.36 in 10.0 mi Calm Calm - N/A   Unknown
2:15 AM - - - N/A% 30.36 in 10.0 mi Calm Calm - N/A   Unknown
2:35 AM 34.5 °F - 34.5 °F 100% 30.36 in 10.0 mi Calm Calm - N/A   Unknown
2:55 AM 33.3 °F 30.2 °F 33.3 °F 100% 30.36 in 10.0 mi North 3.5 mph - N/A   Unknown
3:15 AM - - - N/A% 30.36 in 10.0 mi Calm Calm - N/A   Unknown
3:35 AM 33.1 °F 28.7 °F 33.1 °F 100% 30.36 in 10.0 mi North 4.6 mph - N/A   Unknown
3:55 AM - - - N/A% 30.36 in 10.0 mi Calm Calm - N/A   Unknown
4:15 AM 33.4 °F - 33.4 °F 100% 30.35 in 10.0 mi Calm Calm - N/A   Unknown
4:35 AM 32.7 °F - 32.7 °F 100% 30.35 in 10.0 mi Calm Calm - N/A   Unknown
4:55 AM - - - N/A% 30.35 in 10.0 mi Calm Calm - N/A   Unknown
5:15 AM - - - N/A% 30.35 in 10.0 mi Calm Calm - N/A   Unknown
5:35 AM - - - N/A% 30.35 in 10.0 mi Calm Calm - N/A   Unknown
5:55 AM 32.9 °F - 32.9 °F 100% 30.36 in 10.0 mi Calm Calm - N/A   Unknown
6:15 AM 32.2 °F - 32.2 °F 100% 30.36 in 10.0 mi Calm Calm - N/A   Unknown
6:35 AM 32.7 °F - 32.7 °F 100% 30.35 in 10.0 mi Calm Calm - N/A   Unknown
6:55 AM 32.5 °F - 32.5 °F 100% 30.34 in 10.0 mi Calm Calm - N/A   Unknown
7:15 AM 32.7 °F 29.6 °F 32.7 °F 100% 30.35 in 10.0 mi NNE 3.5 mph - N/A   Unknown
7:35 AM 34.0 °F - 34.0 °F 100% 30.35 in 10.0 mi Calm Calm - N/A   Unknown
7:55 AM 40.1 °F 36.1 °F 28.9 °F 64% 30.35 in 10.0 mi ESE 5.8 mph - N/A   Unknown
8:15 AM 42.8 °F 41.1 °F 27.9 °F 56% 30.35 in 10.0 mi ESE 3.5 mph - N/A   Unknown
8:35 AM 44.2 °F 41.0 °F 28.0 °F 53% 30.34 in 10.0 mi SE 5.8 mph - N/A   Unknown
8:55 AM 46.6 °F - 27.1 °F 47% 30.34 in 10.0 mi SE 4.6 mph - N/A   Unknown
9:15 AM 49.1 °F - 28.9 °F 46% 30.34 in 10.0 mi SSE 4.6 mph - N/A   Unknown
9:35 AM 51.6 °F - 30.9 °F 45% 30.34 in 10.0 mi SSE 5.8 mph - N/A   Unknown
9:55 AM 53.2 °F - 32.0 °F 44% 30.34 in 10.0 mi SSE 4.6 mph - N/A   Unknown
10:15 AM 55.8 °F - 34.0 °F 44% 30.33 in 10.0 mi SSE 6.9 mph - N/A   Unknown
10:35 AM 57.7 °F - 35.4 °F 43% 30.32 in 10.0 mi South 4.6 mph - N/A   Unknown
10:55 AM 59.5 °F - 38.1 °F 45% 30.31 in 10.0 mi South 6.9 mph - N/A   Unknown
11:15 AM 61.0 °F - 39.7 °F 46% 30.30 in 10.0 mi SSW 6.9 mph - N/A   Unknown
11:55 AM 63.7 °F - 41.4 °F 44% 30.29 in 10.0 mi SSW 8.1 mph - N/A   Unknown
12:15 PM 64.4 °F - 42.8 °F 45% 30.27 in 10.0 mi SSW 8.1 mph - N/A   Unknown
12:35 PM 65.1 °F - 43.2 °F 45% 30.26 in 10.0 mi SSW 10.4 mph - N/A   Unknown
12:55 PM 66.4 °F - 44.4 °F 45% 30.25 in 10.0 mi SSW 12.7 mph 17.3 mph N/A   Unknown
1:15 PM 66.0 °F - 44.4 °F 46% 30.24 in 10.0 mi SW 10.4 mph - N/A   Unknown
1:35 PM 66.6 °F - 45.1 °F 46% 30.23 in 10.0 mi SSW 10.4 mph 18.4 mph N/A   Unknown
1:55 PM 66.7 °F - 45.3 °F 46% 30.23 in 10.0 mi SSW 13.8 mph 19.6 mph N/A   Unknown
2:15 PM 66.2 °F - 44.6 °F 46% 30.22 in 10.0 mi SW 9.2 mph - N/A   Unknown
2:35 PM 67.5 °F - 43.9 °F 43% 30.22 in 10.0 mi West 6.9 mph 17.3 mph N/A   Unknown
3:15 PM 66.9 °F - 45.1 °F 45% 30.21 in 10.0 mi WSW 12.7 mph - N/A   Unknown
3:35 PM 66.6 °F - 44.4 °F 45% 30.21 in 10.0 mi SW 12.7 mph - N/A   Unknown
3:55 PM 66.2 °F - 45.3 °F 47% 30.20 in 10.0 mi SW 10.4 mph - N/A   Unknown
4:15 PM 65.5 °F - 45.1 °F 48% 30.20 in 10.0 mi SW 8.1 mph - N/A   Unknown
4:35 PM 65.3 °F - 46.0 °F 50% 30.19 in 10.0 mi SW 8.1 mph - N/A   Unknown
4:55 PM 64.4 °F - 46.6 °F 52% 30.19 in 10.0 mi SW 6.9 mph - N/A   Unknown
5:15 PM 63.3 °F - 46.8 °F 55% 30.19 in 10.0 mi SW 5.8 mph - N/A   Unknown
5:55 PM 59.9 °F - 47.3 °F 63% 30.20 in 10.0 mi SW 4.6 mph - N/A   Unknown
6:15 PM 59.4 °F - 47.1 °F 64% 30.20 in 10.0 mi SW 3.5 mph - N/A   Unknown
6:35 PM 53.8 °F - 48.4 °F 82% 30.21 in 10.0 mi Calm Calm - N/A   Unknown
6:55 PM 52.7 °F - 48.2 °F 85% 30.21 in 10.0 mi SW 4.6 mph - N/A   Unknown
7:35 PM 50.9 °F - 46.0 °F 83% 30.22 in 10.0 mi Calm Calm - N/A   Unknown
7:55 PM 54.9 °F - 48.4 °F 79% 30.22 in 10.0 mi SSW 4.6 mph - N/A   Unknown
8:15 PM 55.9 °F - 48.6 °F 76% 30.22 in 10.0 mi SSW 6.9 mph - N/A   Unknown
8:35 PM 55.4 °F - 48.7 °F 78% 30.22 in 10.0 mi SSW 5.8 mph - N/A   Unknown
8:55 PM 55.2 °F - 48.9 °F 79% 30.22 in 10.0 mi SSW 5.8 mph - N/A   Unknown
9:15 PM 54.7 °F - 48.9 °F 81% 30.22 in 10.0 mi SW 3.5 mph - N/A   Unknown
9:35 PM 54.1 °F - 49.1 °F 83% 30.22 in 10.0 mi SW 3.5 mph - N/A   Unknown
9:55 PM 54.7 °F - 49.5 °F 83% 30.22 in 10.0 mi SW 4.6 mph - N/A   Unknown
10:15 PM 53.8 °F - 48.9 °F 84% 30.22 in 10.0 mi WSW 4.6 mph - N/A   Unknown
10:35 PM 53.4 °F - 48.7 °F 84% 30.23 in 10.0 mi Calm Calm - N/A   Unknown
10:55 PM 52.7 °F - 52.7 °F 100% 30.22 in 10.0 mi Calm Calm - N/A   Unknown
11:15 PM 53.1 °F - 53.1 °F 100% 30.24 in 10.0 mi NNW 6.9 mph - N/A Rain Rain
11:55 PM 52.7 °F - 52.7 °F 100% 30.24 in 10.0 mi Calm Calm - N/A   Unknown